[Iaude] MPEC V200: 2023 VX6 [a=1.90,e=0.43,i=31.2,H=19.1]

mpec at marsden.cfa.harvard.edu mpec at marsden.cfa.harvard.edu
Sat Nov 11 12:36:56 EST 2023


M.P.E.C. 2023-V200                            Issued 2023 November 11, 17:35 UT

     The Minor Planet Electronic Circulars contain information on unusual
         minor planets, routine data on comets and natural satellites,
         and occasional editorial announcements.  They are published
    on behalf of Division F of the International Astronomical Union by the
          Minor Planet Center, Smithsonian Astrophysical Observatory,
                          Cambridge, MA 02138, U.S.A.
			  
             Prepared using the Tamkin Foundation Computer Network

                              MPC at CFA.HARVARD.EDU
            URL https://www.minorplanetcenter.net/    ISSN 1523-6714

                                    2023 VX6                                    


Observations:
     K23V06X*1C2023 11 07.48742108 34 04.156+01 10 35.04         20.60GVEV200G96
     K23V06X 1C2023 11 07.49262208 34 04.487+01 10 40.73         20.81GVEV200G96
     K23V06X 1C2023 11 07.49784208 34 04.760+01 10 47.03         21.11GVEV200G96
     K23V06X KC2023 11 07.51971708 34 06.060+01 11 09.89         20.60GVEV200I52
     K23V06X KC2023 11 07.52366808 34 06.301+01 11 14.64         20.80GVEV200I52
     K23V06X KC2023 11 07.52639408 34 06.481+01 11 17.66         21.37GVEV200I52
     K23V06X pC2023 11 08.10471708 34 42.66 +01 21 53.2          20.9 GVEV200L01
     K23V06X KC2023 11 08.10850408 34 42.90 +01 21 57.1          21.1 GVEV200L01
     K23V06X KC2023 11 08.11229008 34 43.16 +01 22 00.7          20.8 GVEV200L01
     K23V06X KC2023 11 09.41304108 36 01.30 +01 46 22.0          21.2 GVEV200H21
     K23V06X KC2023 11 09.41863608 36 01.59 +01 46 28.8          20.8 GVEV200H21
     K23V06X KC2023 11 09.42143308 36 01.73 +01 46 31.9          21.0 GVEV200H21
     K23V06X KC2023 11 09.43167808 36 02.524+01 46 44.58         21.22GVEV200I52
     K23V06X KC2023 11 09.43503708 36 02.768+01 46 48.25         21.12GVEV200I52
     K23V06X KC2023 11 09.44685208 36 03.442+01 47 01.28         21.15GVEV200I52
     K23V06X KC2023 11 09.45331008 36 03.762+01 47 09.24         21.97GVEV200I52
     K23V06X 1C2023 11 11.14859 08 37 39.62 +02 19 53.8          20.9 VXEV200033
     K23V06X 1C2023 11 11.15044 08 37 39.71 +02 19 55.9          21.1 VXEV200033
     K23V06X 1C2023 11 11.15229 08 37 39.81 +02 19 57.9          21.1 VXEV200033

Observer details:
033 Karl Schwarzschild Observatory, Tautenburg.  Observers S. Melnikov, C.
    Hogner, F. Ludwig, M. Hartmann, B. Stecklum.  Measurer B. Stecklum.
    1.34-m f/3 Schmidt + CCD.
G96 Mt. Lemmon Survey.  Observer D. Rankin.  Measurers E. C. Beshore, D. Fay,
    J. B. Fazekas, D. C. Fuls, A. R. Gibbs, A. D. Grauer, H. Groeller, J. K.
    Hogan, R. A. Kowalski, S. M. Larson, G. J. Leonard, D. Rankin, R. L.
    Seaman, F. C. Shelly, K. W. Wierzchos.  1.5-m reflector + 10K CCD.
H21 Astronomical Research Observatory, Westfield.  Observer R. Holmes.
    Measurers T. Linder, R. Holmes, L. Horn.  0.76-m f/3.0 astrograph + CCD.
I52 Steward Observatory, Mt. Lemmon Station.  Observer H. Groeller.  Measurers
    E. C. Beshore, D. Fay, J. B. Fazekas, D. C. Fuls, A. R. Gibbs, A. D.
    Grauer, H. Groeller, J. K. Hogan, R. A. Kowalski, S. M. Larson, G. J.
    Leonard, D. Rankin, R. L. Seaman, F. C. Shelly, K. W. Wierzchos.  1.0-m
    prime focus + CCD.
L01 Visnjan Observatory, Tican.  Observer K. Korlevic.  1.0-m f/2.9 reflector
    + CCD.

Orbital elements:
2023 VX6                                                 Earth MOID = 0.3719 AU
Epoch 2023 Sept. 13.0 TT = JDT 2460200.5                Bell                    
M   9.47550              (2000.0)            P               Q                  
n   0.37680376     Peri.  267.25252     +0.84721070     -0.15704604             
a   1.8984212      Node   101.38939     +0.31741545     +0.91568240             
e   0.4293802      Incl.   31.17870     -0.42600641     +0.36994902             
P   2.62           H   19.16          G   0.15           U   9                  
Residuals in seconds of arc
231107 G96  0.0   0.1-    231108 L01  0.2+  0.4+    231109 I52  0.9+  0.5-
231107 G96  0.3+  0.1-    231108 L01  0.7+  0.2-    231109 I52  0.3+  0.1+
231107 G96  0.2-  0.5+    231109 H21  0.2+  0.3-    231111 033  0.3+  0.2+
231107 I52  0.2-  0.6-    231109 H21  0.1-  0.2+    231111 033  0.3+  0.1+
231107 I52  0.1-  0.1-    231109 H21  0.4-  0.1+    231111 033  0.3+  0.1-
231107 I52  0.1+  0.1-    231109 I52  0.2-  0.1+
231108 L01  0.1-  0.7+    231109 I52  0.6+  0.1-

Ephemeris:
2023 VX6                 a,e,i = 1.90, 0.43, 31                  q = 1.0833
Date    TT    R. A. (2000) Decl.     Delta      r    Elong.  Phase     V
2023 10 12    07 55 19.1 -05 13 39   0.9612  1.2246    77.3    52.7    21.5
...
2023 10 27    08 19 47.5 -01 56 44   0.9192  1.2999    85.5    49.7    21.4
...
2023 11 04    08 30 11.5 +00 09 20   0.8887  1.3434    91.0    47.6    21.3
...
2023 11 10    08 36 35.1 +01 57 40   0.8631  1.3771    95.7    45.7    21.3
2023 11 11    08 37 31.3 +02 17 05   0.8587  1.3828    96.6    45.4    21.3
2023 11 12    08 38 25.1 +02 36 56   0.8542  1.3885    97.4    45.0    21.3
...
2023 11 18    08 42 56.6 +04 45 37   0.8271  1.4231   102.8    42.6    21.2
...
2023 11 26    08 46 27.9 +08 06 03   0.7914  1.4699   111.0    38.8    21.0
...
2023 12 11    08 43 53.9 +16 00 59   0.7367  1.5587   129.2    29.3    20.7

M. P. C. Staff               (C) Copyright 2023 MPC           M.P.E.C. 2023-V200




More information about the Iaude mailing list